Location: eljas
(40.1958°N, 6.8661°W)
Time: 02:45:53
(UTC+02:00)

ISS - All Passes

Search period start: 27 March 2017 00:00
Search period end: 06 April 2017 00:00
Orbit: 399 x 409 km, 51.6° (Epoch: 27 March)

Date Brightness Start Highest point End Pass type
(mag) Time Alt. Az. Time Alt. Az. Time Alt. Az.
27 Mar - 00:16:17 10° WNW 00:18:46 20° NNW 00:21:17 10° NNE night (unlit)
27 Mar - 01:55:06 10° NNW 01:56:15 11° N 01:57:23 10° NNE night (unlit)
27 Mar - 03:31:21 10° NNW 03:33:44 18° NNE 03:36:07 10° ENE night (unlit)
27 Mar - 05:07:17 10° NW 05:10:37 89° E 05:13:53 10° SE night (unlit)
27 Mar - 21:46:43 10° SSW 21:49:42 35° SE 21:52:44 10° ENE visible
27 Mar - 23:23:19 10° W 23:26:13 28° NNW 23:29:07 10° NE visible
28 Mar - 01:02:08 10° NNW 01:03:31 12° N 01:04:54 10° NNE night (unlit)
28 Mar - 02:39:12 10° NNW 02:41:05 14° NNE 02:42:59 10° NE night (unlit)
28 Mar - 04:14:58 10° NW 04:18:11 47° NNE 04:21:23 10° ESE night (unlit)
28 Mar - 05:52:03 10° W 05:54:25 18° SW 05:56:47 10° S night (unlit)
28 Mar - 20:55:09 10° S 20:57:29 18° SE 20:59:49 10° E daylight
28 Mar - 22:30:33 10° WSW 22:33:42 46° NNW 22:36:53 10° NE visible
29 Mar - 00:08:58 10° NW 00:10:49 14° NNW 00:12:40 10° NNE visible
29 Mar - 01:46:58 10° NNW 01:48:23 12° N 01:49:47 10° NNE night (unlit)
29 Mar - 03:22:45 10° NW 03:25:41 29° NNE 03:28:37 10° E night (unlit)
29 Mar - 04:59:08 10° WNW 05:02:11 35° SW 05:05:13 10° SSE night (unlit)
29 Mar - 21:38:02 10° SW 21:41:16 88° NW 21:44:33 10° NE visible
29 Mar - 23:15:48 10° WNW 23:18:08 18° NNW 23:20:29 10° NNE visible
30 Mar - 00:54:30 10° NNW 00:55:38 11° N 00:56:46 10° NNE night (unlit)
30 Mar - 02:30:34 10° NNW 02:33:06 20° NNE 02:35:37 10° ENE night (unlit)
30 Mar - 04:06:34 10° WNW 04:09:51 73° SW 04:13:08 10° SE night (unlit)
30 Mar - 20:45:48 10° SSW 20:48:55 45° SE 20:52:03 10° ENE daylight
30 Mar - 22:22:45 10° W 22:25:30 25° NNW 22:28:17 10° NNE visible
31 Mar - 00:01:37 10° NNW 00:02:52 12° N 00:04:08 10° NNE visible
31 Mar - 01:38:23 10° NNW 01:40:25 15° NNE 01:42:28 10° NE night (unlit)
31 Mar - 03:14:11 10° NW 03:17:26 58° NE 03:20:41 10° ESE night (unlit)
31 Mar - 04:51:38 10° W 04:53:34 15° SW 04:55:30 10° SSW night (unlit)
31 Mar - 19:54:01 10° S 19:56:37 23° SE 19:59:16 10° E daylight
31 Mar - 21:29:52 10° WSW 21:32:56 38° NNW 21:36:02 10° NE visible
31 Mar - 23:08:27 10° NW 23:10:07 13° N 23:11:47 10° NNE visible
01 Apr - 00:46:08 10° NNW 00:47:41 13° N 00:49:14 10° NE visible
01 Apr - 02:21:53 10° NW 02:24:55 33° NNE 02:27:57 10° E night (unlit)
01 Apr - 03:58:27 10° WNW 04:01:19 28° SW 04:04:12 10° SSE night (unlit)
01 Apr - 19:03:10 10° SSE 19:04:24 12° SE 19:05:39 10° ESE daylight
01 Apr - 20:37:12 10° WSW 20:40:26 71° NW 20:43:42 10° NE daylight
01 Apr - 22:15:13 10° WNW 22:17:22 16° NNW 22:19:33 10° NNE visible
01 Apr - 23:53:44 10° NNW 23:54:54 11° N 23:56:04 10° NNE visible
02 Apr - 01:29:39 10° NNW 01:32:19 22° NNE 01:34:59 10° ENE night (unlit)
02 Apr - 03:05:45 10° WNW 03:09:00 57° SW 03:12:12 10° SE night (unlit)
02 Apr - 19:44:50 10° SW 19:48:01 57° SE 19:51:14 10° ENE daylight
02 Apr - 21:22:04 10° WNW 21:24:41 22° NNW 21:27:20 10° NNE visible
02 Apr - 23:00:57 10° NNW 23:02:06 11° N 23:03:15 10° NNE visible
03 Apr - 00:37:26 10° NNW 00:39:37 16° NNE 00:41:50 10° ENE visible
03 Apr - 02:13:16 10° NW 02:16:33 72° NE 02:19:50 10° ESE night (unlit)
03 Apr - 03:51:19 10° WSW 03:52:36 12° SW 03:53:52 10° SSW night (unlit)
03 Apr - 18:52:50 10° SSW 18:55:39 28° SE 18:58:30 10° ENE daylight
03 Apr - 20:29:05 10° W 20:32:04 33° NNW 20:35:04 10° NE daylight
03 Apr - 22:07:48 10° NW 22:09:18 12° N 22:10:48 10° NNE visible
03 Apr - 23:45:11 10° NNW 23:46:52 13° NNE 23:48:34 10° NE visible
04 Apr - 01:20:54 10° NW 01:24:02 39° NNE 01:27:08 10° ESE night (unlit)
04 Apr - 02:57:41 10° W 03:00:20 23° SW 03:02:59 10° S night (unlit)
04 Apr - 18:01:29 10° SSE 18:03:22 15° SE 18:05:16 10° E daylight
04 Apr - 19:36:19 10° WSW 19:39:30 57° NNW 19:42:43 10° NE daylight
04 Apr - 21:14:31 10° NW 21:16:31 15° NNW 21:18:31 10° NNE daylight
04 Apr - 22:52:48 10° NNW 22:54:04 12° N 22:55:19 10° NNE visible
05 Apr - 00:28:37 10° NNW 00:31:24 25° NNE 00:34:12 10° E visible
05 Apr - 02:04:50 10° WNW 02:08:00 44° SW 02:11:08 10° SSE night (unlit)
05 Apr - 18:43:47 10° SW 18:47:00 73° SE 18:50:15 10° NE daylight
05 Apr - 20:21:18 10° WNW 20:23:46 20° NNW 20:26:15 10° NNE daylight
05 Apr - 22:00:08 10° NNW 22:01:14 11° N 22:02:18 10° NNE visible
05 Apr - 23:36:21 10° NNW 23:38:42 18° NNE 23:41:03 10° ENE visible
